This is the latest recevied weather packets stored in our database for station/object R1CBW-13. If no packets are shown the sender has not sent any weather packets the latest 10 day(s).
| Time | Temp. | Humidity | Pressure | Rain* | Wind** | Luminosity | Snow |
|---|---|---|---|---|---|---|---|
| 1777278129 | 3.33° C | 67% | 1004 hPa | 0 mm | - | - | - |
| 1777278069 | 3.89° C | 67% | 1003.9 hPa | 0 mm | - | - | - |
| 1777278009 | 3.89° C | 68% | 1003.9 hPa | 0 mm | - | - | - |
| 1777277949 | 3.33° C | 68% | 1003.7 hPa | 0 mm | - | - | - |
| 1777277889 | 3.33° C | 69% | 1003.9 hPa | 0 mm | - | - | - |
| 1777277829 | 3.33° C | 70% | 1003.7 hPa | 0 mm | - | - | - |
| 1777277769 | 2.78° C | 71% | 1003.8 hPa | 0 mm | - | - | - |
| 1777277709 | 2.78° C | 70% | 1003.9 hPa | 0 mm | - | - | - |
| 1777277649 | 2.22° C | 70% | 1003.8 hPa | 0 mm | - | - | - |
| 1777277589 | 2.78° C | 70% | 1003.8 hPa | 0 mm | - | - | - |
| 1777277529 | 2.22° C | 72% | 1003.9 hPa | 0 mm | - | - | - |
| 1777277469 | 2.22° C | 70% | 1003.9 hPa | 0 mm | - | - | - |
| 1777277409 | 2.78° C | 72% | 1003.8 hPa | 0 mm | - | - | - |
| 1777277349 | 2.22° C | 72% | 1003.9 hPa | 0 mm | - | - | - |
| 1777277289 | 2.78° C | 71% | 1003.8 hPa | 0 mm | - | - | - |
| 1777277228 | 2.22° C | 72% | 1003.6 hPa | 0 mm | - | - | - |
| 1777277169 | 2.78° C | 72% | 1003.7 hPa | 0 mm | - | - | - |
| 1777277108 | 2.78° C | 72% | 1003.7 hPa | 0 mm | - | - | - |
| 1777277048 | 2.22° C | 72% | 1003.6 hPa | 0 mm | - | - | - |
| 1777276988 | 2.78° C | 73% | 1003.7 hPa | 0 mm | - | - | - |
| 1777276928 | 2.78° C | 73% | 1003.7 hPa | 0 mm | - | - | - |
| 1777276868 | 2.22° C | 72% | 1003.8 hPa | 0 mm | - | - | - |
| 1777276808 | 2.22° C | 73% | 1003.9 hPa | 0 mm | - | - | - |
| 1777276749 | 2.22° C | 74% | 1003.7 hPa | 0 mm | - | - | - |
| 1777276689 | 2.22° C | 75% | 1003.6 hPa | 0 mm | - | - | - |
* Rain latest hour (hover to see other rain measurements)
** Current wind speed in m/s (hover to see current wind gust speed)